Regional Weather Roundup
Issued by NWS

Home | Current Version | Previous Version | Text Only | Print | Product List | Glossary On
Versions: 1 2 3 4 5 6 7 8 9 10 11 12 13 14 15 16 17 18 19 20 21 22 23 24 25 26 27
000
ASUS46 KSEW 241210
RWRWA

WASHINGTON REGIONAL WEATHER ROUNDUP
NATIONAL WEATHER SERVICE SEATTLE WA
400 AM PST SAT FEB 24 2018

NOTE:"FAIR" INDICATES FEW OR NO CLOUDS BELOW 12,000 FEET WITH NO
SIGNIFICANT WEATHER AND/OR OBSTRUCTIONS TO VISIBILITY.

WAZ507-509-555>559-241300-
SEATTLE, TACOMA, EVERETT, AND VICINITY

CITY           SKY/WX    TMP DP  RH WIND       PRES   REMARKS
EVERETT        MIX PCPN  35  34  96 SW13      29.89F WCI  26
6HR MIN TEMP:  33; 6HR MAX TEMP:  36; 6HR PCP: TRACE;

BOEING FIELD   CLOUDY    39  35  86 S15G22    29.90F
6HR MIN TEMP:  37; 6HR MAX TEMP:  39; 6HR PCP: TRACE;

RENTON         LGT RAIN  38  35  89 SE9G21    29.90F
6HR MIN TEMP:  38; 6HR MAX TEMP:  39; 6HR PCP: TRACE;

SEATAC AIRPORT LGT RAIN  37  34  89 S20G26    29.88F
6HR MIN TEMP:  36; 6HR MAX TEMP:  38; 6HR PCP:  0.06;

JBLM-MCCHORD   LGT RAIN  35  35 100 SW12      29.94F FOG     WCI  26
6HR MIN TEMP:  35; 6HR MAX TEMP:  37; 6HR PCP:  0.10;

PUYALLUP       DRIZZLE   36  36 100 VRB8      29.93F
BREMERTON      LGT RAIN  34  34 100 S14       29.88F WCI  25
6HR MIN TEMP:  33; 6HR MAX TEMP:  34; 6HR PCP:  0.01;

JBLM-FT LEWIS  FLURRIES  34  34 100 S10       29.94F WCI  26
6HR MIN TEMP:  34; 6HR MAX TEMP:  36; 6HR PCP:  0.08;

TACOMA NARROWS LGT RAIN  35  34  96 S15G28    29.92F WCI  25
6HR MIN TEMP:  34; 6HR MAX TEMP:  36; 6HR PCP:  0.07;

$$

WAZ001-503-506-510-514-515-241300-
NORTH INTERIOR

CITY           SKY/WX    TMP DP  RH WIND       PRES   REMARKS
BELLINGHAM     CLOUDY    36  34  92 S14G23    29.86F
6HR MIN TEMP:  30; 6HR MAX TEMP:  36; 6HR PCP:  0.13;

FRIDAY HARBOR  CLOUDY    37  35  92 SW7       29.87F
6HR MIN TEMP:  34; 6HR MAX TEMP:  36; 6HR PCP:  0.13;

EASTSOUND      CLOUDY    37  36  93 S12G20    29.85F
PORT ANGELES   MOCLDY    37  32  82 W15       29.88F
6HR MIN TEMP:  31; 6HR MAX TEMP:  37; 6HR PCP:  0.10;

EDIZ HOOK      FAIR      39  33  78 W20G25    29.89F
6HR MIN TEMP:  36; 6HR MAX TEMP:  39; 6HR PCP:  0.05;

PORT TOWNSEND  MOCLDY    32  32 100 CALM      29.89F
NAS WHIDBEY    CLOUDY    36  36 100 S9        29.92F FOG
6HR MIN TEMP:  36; 6HR MAX TEMP:  38; 6HR PCP:  0.07;

ARLINGTON      LGT SNOW  34  33  96 SW5       29.91F FOG
6HR MIN TEMP:  34; 6HR MAX TEMP:  36; 6HR PCP:  0.12;

BURLINGTON     CLOUDY    34  32  93 SE6G12    29.89F FOG
$$

WAZ020-022-039-040-504-511-512-241300-
SOUTHWEST INTERIOR

CITY           SKY/WX    TMP DP  RH WIND       PRES   REMARKS
SHELTON        LGT SNOW  35  33  92 SW10      29.90F FOG     WCI  27
6HR MIN TEMP:  32; 6HR MAX TEMP:  37; 6HR PCP:  0.21;

OLYMPIA        LGT RAIN  33  33 100 S7        29.96S
6HR MIN TEMP:  33; 6HR MAX TEMP:  34; 6HR PCP:  0.17;

CHEHALIS       LGT RAIN  34  34 100 NW5       30.00S
KELSO          LGT RAIN  34  33  96 SE10      30.04F WCI  26
6HR MIN TEMP:  34; 6HR MAX TEMP:  36; 6HR PCP:  0.10;

VANCOUVER      CLOUDY    38  36  92 VRB3      30.05F
6HR MIN TEMP:  37; 6HR MAX TEMP:  39; 6HR PCP:  0.01;

SCAPPOOSE, OR  LGT RAIN  34  34 100 SE3       30.04F
6HR MIN TEMP:  34; 6HR MAX TEMP:  36; 6HR PCP:  0.03;

PORTLAND, OR   LGT RAIN  38  35  89 S9        30.05F
6HR MIN TEMP:  37; 6HR MAX TEMP:  39; 6HR PCP:  0.01;

$$

WAZ021-516-517-241300-
WASHINGTON COAST

CITY           SKY/WX    TMP DP  RH WIND       PRES   REMARKS
FORKS          MOCLDY    37  34  89 W8        29.94S
6HR MIN TEMP:  36; 6HR MAX TEMP:  39; 6HR PCP:  0.15;

HOQUIAM        MOCLDY    40  36  86 W14       29.98R
6HR MIN TEMP:  34; 6HR MAX TEMP:  42; 6HR PCP:  0.08;

ASTORIA, OR    CLOUDY    42  38  85 W17G25    30.03S
6HR MIN TEMP:  37; 6HR MAX TEMP:  43; 6HR PCP:  0.13;

$$

WAZ019-023-024-040-567>569-241300-
CASCADE MOUNTAINS AND COLUMBIA GORGE

CITY           SKY/WX    TMP DP  RH WIND       PRES   REMARKS
STAMPEDE PASS  NOT AVBL
TROUTDALE, OR  CLOUDY    39  36  89 SW17G26   30.06F
6HR MIN TEMP:  38; 6HR MAX TEMP:  41; 6HR PCP:  0.02;

HOOD RIVER, OR LGT SNOW  32  32 100 CALM      30.01F
THE DALLES, OR LGT SNOW  31  29  92 SE5       30.03F FOG
6HR MIN TEMP:  31; 6HR MAX TEMP:  34; 6HR PCP: TRACE;

$$

WAZ026-027-041>044-520-521-241300-
EAST SLOPES

CITY           SKY/WX    TMP DP  RH WIND       PRES   REMARKS
OMAK           CLOUDY    25  23  92 E3        29.94F
6HR MIN TEMP:  25; 6HR MAX TEMP:  27;

WENATCHEE      MOCLDY    20  18  92 NE3       29.91F
6HR MIN TEMP:  19; 6HR MAX TEMP:  25;

ELLENSBURG     MOCLDY    23  20  88 CALM      29.87F
6HR MIN TEMP:  23; 6HR MAX TEMP:  27;

YAKIMA         MOCLDY    19  15  84 NW3       29.92F
6HR MIN TEMP:  19; 6HR MAX TEMP:  24;

SUNNYSIDE ARPT CLOUDY    33  26  77 SE6       29.93F
6HR MIN TEMP:  27; 6HR MAX TEMP:  33;

YAKIMA TC      FAIR      19  15  85 CALM      29.88F
6HR MIN TEMP:  17; 6HR MAX TEMP:  21;

$$

WAZ028-034-035-241300-
COLUMBIA BASIN

CITY           SKY/WX    TMP DP  RH WIND       PRES   REMARKS
EPHRATA        MOCLDY    21  19  92 N8        29.91F
6HR MIN TEMP:  19; 6HR MAX TEMP:  23;

MOSES LAKE     MOCLDY    19  17  92 N7        29.91F
6HR MIN TEMP:  19; 6HR MAX TEMP:  22;

PASCO          CLOUDY    39  26  59 SW14      29.96F
6HR MIN TEMP:  32; 6HR MAX TEMP:  39;

RICHLAND ARPT  CLOUDY    39  28  65 SW13      29.96F
6HR MIN TEMP:  34; 6HR MAX TEMP:  40;

HERMISTON, OR  CLOUDY    33  26  75 SW3       29.97F
6HR MIN TEMP:  31; 6HR MAX TEMP:  35;

$$

WAZ036>038-241300-
NORTHEAST WASHINGTON

CITY           SKY/WX    TMP DP  RH WIND       PRES   REMARKS
SPOKANE GEIGER FLURRIES  24  21  88 S7        29.90F
6HR MIN TEMP:  22; 6HR MAX TEMP:  25; 6HR PCP: TRACE;

SPOKANE FELTS  CLOUDY    27  20  75 NE3       29.93F
6HR MIN TEMP:  25; 6HR MAX TEMP:  28;

FAIRCHILD AFB  MOCLDY    23  23  98 SE8       29.88F
6HR MIN TEMP:  21; 6HR MAX TEMP:  23; 6HR PCP: TRACE;

COEURDALENE,ID FLURRIES  24  20  84 S9        29.93F
6HR MIN TEMP:  22; 6HR MAX TEMP:  24; 6HR PCP:  0.01;

DEER PARK      CLOUDY    22  19  89 NE3       29.92F
6HR MIN TEMP:  21; 6HR MAX TEMP:  23; 6HR PCP:  0.01;

$$

WAZ029>033-241300-
SOUTHEAST WASHINGTON

CITY           SKY/WX    TMP DP  RH WIND       PRES   REMARKS
PULLMAN        CLOUDY    24  21  88 E10       29.94F WCI  14
6HR MIN TEMP:  22; 6HR MAX TEMP:  25; 6HR PCP: TRACE;

LEWISTON, ID   CLOUDY    31  23  72 E5        29.98F
6HR MIN TEMP:  27; 6HR MAX TEMP:  31; 6HR PCP: TRACE;

WALLA WALLA    CLOUDY    38  27  64 S12       29.96F
6HR MIN TEMP:  35; 6HR MAX TEMP:  39; 6HR PCP: TRACE;

PENDLETON, OR  CLOUDY    35  25  66 S10       29.95F WCI  27
6HR MIN TEMP:  31; 6HR MAX TEMP:  36;

$$




USA.gov is the U.S. government's official web portal to all federal, state and local government web resources and services.